User: anonymous   Login
Location: *
(50.6089°N, 2.2719°E)
Time: 21:10:06
(UTC+00:00)
Language:

ATLAS 5 CENTAUR R/B - Orbit

View from above orbital plane
View from above orbital plane
View from above satellite
View from above satellite

Ground track
Ground track

The orbit data is extracted from the following two-line orbital elements,

1 31702U 07027B   19343.25394279 0.00000200  00000-0  48239-4 0    05
2 31702  63.3311 103.0696 0370054  13.3355 346.6645 14.18744647    06
Epoch (UTC): 09 December 2019 06:05:40
Eccentricity: 0.0370054
inclination: 63.3311°
perigee height: 563 km
apogee height: 1096 km
right ascension of ascending node: 103.0696°
argument of perigee: 13.3355°
revolutions per day: 14.18744647
mean anomaly at epoch: 346.6645°
orbit number at epoch: 0

The dashed part of the orbit path shows where the satellite is in the earth's shadow,  

DLR